Location: Brachbach
(49.1847°N, 9.7240°E)
Time: 18:04:22
(UTC+00:00)

Meteor 2-5 Rocket - Pass Details

Date: 16 August 2024
Orbit: 833 x 910 km, 81.2° (Epoch: 07 September)

Event Time Altitude Azimuth Distance (km) Brightness Sun altitude
Rises 00:03:49 0° 356° (N) 3,472 8.1 -26.6°
Reaches altitude 10° 00:06:55 10° 13° (NNE) 2,544 7.2 -26.5°
Maximum altitude 00:11:11 21° 61° (ENE) 1,908 5.9 -26.4°
Drops below altitude 10° 00:15:28 10° 108° (ESE) 2,569 6.2 -26.2°
Enters shadow 00:16:44 - 116° (ESE) 2,926 6.4 -26.2°
